,,PressureMeas_1m,,PRMeasQMR101_1,,RHStat155_1m_1,,SRMeasQMS101R_1m,,TAStat155_1m_1,,GenWind_1,,GenWind_1,
2019-11-09, 07:00:06,VALID,919.551,VALID,0.0,VALID,95.861,VALID,38.024,VALID,20.501,INVALID,360.0,VALID,0.0,
2019-11-09, 07:01:06,VALID,919.559,VALID,0.0,VALID,95.787,VALID,38.239,VALID,20.513,INVALID,360.0,VALID,0.0,
2019-11-09, 07:02:06,VALID,919.574,VALID,0.0,VALID,95.896,VALID,38.49,VALID,20.538,INVALID,360.0,VALID,0.0,
2019-11-09, 07:03:06,VALID,919.589,VALID,0.0,VALID,95.907,VALID,38.822,VALID,20.534,INVALID,360.0,VALID,0.0,
2019-11-09, 07:04:07,VALID,919.612,VALID,0.0,VALID,95.911,VALID,39.141,VALID,20.512,INVALID,360.0,VALID,0.0,
2019-11-09, 07:05:07,VALID,919.622,VALID,0.0,VALID,96.063,VALID,39.457,VALID,20.512,INVALID,360.0,VALID,0.0,
2019-11-09, 07:06:07,VALID,919.633,VALID,0.0,VALID,95.975,VALID,39.919,VALID,20.516,INVALID,360.0,VALID,0.0,
2019-11-09, 07:07:07,VALID,919.654,VALID,0.0,VALID,95.836,VALID,40.392,VALID,20.523,INVALID,360.0,VALID,0.0,
2019-11-09, 07:08:07,VALID,919.669,VALID,0.0,VALID,95.717,VALID,40.805,VALID,20.531,INVALID,360.0,VALID,0.0,
2019-11-09, 07:09:07,VALID,919.674,VALID,0.0,VALID,95.675,VALID,41.223,VALID,20.513,INVALID,360.0,VALID,0.0,
2019-11-09, 07:10:07,VALID,919.68,VALID,0.0,VALID,95.803,VALID,41.647,VALID,20.49,INVALID,360.0,VALID,0.0,
2019-11-09, 07:11:07,VALID,919.699,VALID,0.0,VALID,95.781,VALID,42.092,VALID,20.477,INVALID,360.0,VALID,0.0,
2019-11-09, 07:12:07,VALID,919.713,VALID,0.0,VALID,95.732,VALID,38.854,VALID,20.459,INVALID,360.0,VALID,0.0,
2019-11-09, 07:13:07,VALID,919.724,VALID,0.0,VALID,95.598,VALID,42.839,VALID,20.453,INVALID,360.0,VALID,0.0,
2019-11-09, 07:14:07,VALID,919.737,VALID,0.0,VALID,95.49,VALID,43.282,VALID,20.464,INVALID,360.0,VALID,0.0,
2019-11-09, 07:15:07,VALID,919.748,VALID,0.0,VALID,95.424,VALID,43.822,VALID,20.477,INVALID,360.0,VALID,0.0,
2019-11-09, 07:16:07,VALID,919.753,VALID,0.0,VALID,95.449,VALID,44.532,VALID,20.504,INVALID,360.0,VALID,0.0,
2019-11-09, 07:17:07,VALID,919.767,VALID,0.0,VALID,95.298,VALID,45.388,VALID,20.519,INVALID,360.0,VALID,0.0,
2019-11-09, 07:18:07,VALID,919.794,VALID,0.0,VALID,95.383,VALID,46.283,VALID,20.513,INVALID,360.0,VALID,0.0,
2019-11-09, 07:19:07,VALID,919.791,VALID,0.0,VALID,95.662,VALID,47.199,VALID,20.524,VALID,45.0,VALID,0.0,
2019-11-09, 07:20:07,VALID,919.788,VALID,0.0,VALID,95.445,VALID,48.22,VALID,20.507,INVALID,360.0,VALID,0.0,
2019-11-09, 07:21:07,VALID,919.823,VALID,0.0,VALID,95.561,VALID,49.4,VALID,20.516,INVALID,360.0,VALID,0.0,
2019-11-09, 07:22:07,VALID,919.86,VALID,0.0,VALID,95.582,VALID,50.875,VALID,20.538,VALID,45.0,VALID,0.0,
2019-11-09, 07:23:07,VALID,919.867,VALID,0.0,VALID,95.126,VALID,52.577,VALID,20.511,INVALID,360.0,VALID,0.0,
2019-11-09, 07:24:07,VALID,919.877,VALID,0.0,VALID,95.001,VALID,54.475,VALID,20.499,INVALID,360.0,VALID,0.0,
2019-11-09, 07:25:07,VALID,919.897,VALID,0.0,VALID,95.12,VALID,56.734,VALID,20.519,INVALID,360.0,VALID,0.0,
2019-11-09, 07:26:07,VALID,919.902,VALID,0.0,VALID,95.309,VALID,59.384,VALID,20.549,INVALID,360.0,VALID,0.0,
2019-11-09, 07:27:07,VALID,919.901,VALID,0.0,VALID,95.314,VALID,62.304,VALID,20.566,INVALID,360.0,VALID,0.0,
2019-11-09, 07:28:07,VALID,919.907,VALID,0.0,VALID,94.956,VALID,65.398,VALID,20.545,INVALID,360.0,VALID,0.0,
2019-11-09, 07:29:07,VALID,919.914,VALID,0.0,VALID,95.209,VALID,68.598,VALID,20.554,INVALID,360.0,VALID,0.0,
2019-11-09, 07:30:07,VALID,919.929,VALID,0.0,VALID,95.379,VALID,71.818,VALID,20.575,INVALID,360.0,VALID,0.0,
2019-11-09, 07:31:07,VALID,919.934,VALID,0.0,VALID,95.197,VALID,74.992,VALID,20.586,INVALID,360.0,VALID,0.0,
2019-11-09, 07:32:07,VALID,919.963,VALID,0.0,VALID,95.164,VALID,77.972,VALID,20.599,INVALID,360.0,VALID,0.0,
2019-11-09, 07:33:07,VALID,919.996,VALID,0.0,VALID,95.043,VALID,80.934,VALID,20.615,INVALID,360.0,VALID,0.0,
2019-11-09, 07:34:07,VALID,920.029,VALID,0.0,VALID,94.839,VALID,83.644,VALID,20.636,INVALID,360.0,VALID,0.0,
2019-11-09, 07:35:07,VALID,920.037,VALID,0.0,VALID,94.577,VALID,86.294,VALID,20.683,INVALID,360.0,VALID,0.0,
2019-11-09, 07:36:07,VALID,920.058,VALID,0.0,VALID,94.117,VALID,88.95,VALID,20.708,INVALID,360.0,VALID,0.0,
2019-11-09, 07:37:07,VALID,920.062,VALID,0.0,VALID,94.128,VALID,91.76,VALID,20.729,INVALID,360.0,VALID,0.0,
2019-11-09, 07:38:07,VALID,920.087,VALID,0.0,VALID,94.294,VALID,94.8,VALID,20.758,INVALID,360.0,VALID,0.0,
2019-11-09, 07:39:07,VALID,920.096,VALID,0.0,VALID,94.363,VALID,98.202,VALID,20.832,INVALID,360.0,VALID,0.0,
2019-11-09, 07:40:07,VALID,920.12,VALID,0.0,VALID,93.914,VALID,101.752,VALID,20.911,INVALID,360.0,VALID,0.0,
2019-11-09, 07:41:07,VALID,920.119,VALID,0.0,VALID,93.571,VALID,105.705,VALID,20.972,INVALID,360.0,VALID,0.0,
2019-11-09, 07:42:07,VALID,920.152,VALID,0.0,VALID,93.528,VALID,109.806,VALID,21.038,INVALID,360.0,VALID,0.0,
2019-11-09, 07:43:07,VALID,920.151,VALID,0.0,VALID,93.387,VALID,113.854,VALID,21.098,INVALID,360.0,VALID,0.0,
2019-11-09, 07:44:07,VALID,920.171,VALID,0.0,VALID,93.198,VALID,117.97,VALID,21.122,INVALID,360.0,VALID,0.0,
2019-11-09, 07:45:07,VALID,920.189,VALID,0.0,VALID,93.089,VALID,121.977,VALID,21.165,INVALID,360.0,VALID,0.0,
2019-11-09, 07:46:07,VALID,920.206,VALID,0.0,VALID,92.817,VALID,125.899,VALID,21.219,INVALID,360.0,VALID,0.0,
2019-11-09, 07:47:07,VALID,920.221,VALID,0.0,VALID,92.992,VALID,129.696,VALID,21.256,INVALID,360.0,VALID,0.0,
2019-11-09, 07:48:07,VALID,920.233,VALID,0.0,VALID,93.191,VALID,133.356,VALID,21.242,INVALID,360.0,VALID,0.0,
2019-11-09, 07:49:07,VALID,920.266,VALID,0.0,VALID,93.408,VALID,136.954,VALID,21.211,INVALID,360.0,VALID,0.0,
2019-11-09, 07:50:07,VALID,920.262,VALID,0.0,VALID,93.446,VALID,140.364,VALID,21.177,INVALID,360.0,VALID,0.0,
2019-11-09, 07:51:07,VALID,920.249,VALID,0.0,VALID,93.994,VALID,143.443,VALID,21.198,INVALID,360.0,VALID,0.0,
2019-11-09, 07:52:07,VALID,920.279,VALID,0.0,VALID,93.849,VALID,146.419,VALID,21.233,INVALID,360.0,VALID,0.0,
2019-11-09, 07:53:07,VALID,920.287,VALID,0.0,VALID,93.719,VALID,149.247,VALID,21.305,INVALID,360.0,VALID,0.0,
2019-11-09, 07:54:07,VALID,920.298,VALID,0.0,VALID,93.11,VALID,152.106,VALID,21.338,INVALID,360.0,VALID,0.0,
2019-11-09, 07:55:07,VALID,920.324,VALID,0.0,VALID,92.752,VALID,154.982,VALID,21.3,INVALID,360.0,VALID,0.0,
2019-11-09, 07:56:07,VALID,920.342,VALID,0.0,VALID,93.0,VALID,157.99,VALID,21.259,INVALID,360.0,VALID,0.0,
2019-11-09, 07:57:07,VALID,920.353,VALID,0.0,VALID,93.411,VALID,160.989,VALID,21.284,INVALID,360.0,VALID,0.0,
2019-11-09, 07:58:07,VALID,920.36,VALID,0.0,VALID,93.061,VALID,164.464,VALID,21.348,INVALID,360.0,VALID,0.0,
2019-11-09, 07:59:07,VALID,920.361,VALID,0.0,VALID,92.869,VALID,168.549,VALID,21.413,INVALID,360.0,VALID,0.0,
2019-11-09, 08:00:07,VALID,920.373,VALID,0.0,VALID,92.163,VALID,173.239,VALID,21.458,INVALID,360.0,VALID,0.0,
2019-11-09, 08:01:07,VALID,920.375,VALID,0.0,VALID,91.836,VALID,178.475,VALID,21.546,VALID,44.0,VALID,0.0,
2019-11-09, 08:02:07,VALID,920.382,VALID,0.0,VALID,91.699,VALID,184.217,VALID,21.65,INVALID,360.0,VALID,0.0,
2019-11-09, 08:03:07,VALID,920.396,VALID,0.0,VALID,91.476,VALID,190.087,VALID,21.707,INVALID,360.0,VALID,0.0,
2019-11-09, 08:04:07,VALID,920.395,VALID,0.0,VALID,91.592,VALID,195.17,VALID,21.811,INVALID,360.0,VALID,0.0,
2019-11-09, 08:05:07,VALID,920.406,VALID,0.0,VALID,90.736,VALID,200.312,VALID,21.841,INVALID,360.0,VALID,0.0,
2019-11-09, 08:06:07,VALID,920.433,VALID,0.0,VALID,90.274,VALID,205.925,VALID,21.826,INVALID,360.0,VALID,0.0,
2019-11-09, 08:07:07,VALID,920.432,VALID,0.0,VALID,90.311,VALID,212.275,VALID,21.886,INVALID,360.0,VALID,0.0,
2019-11-09, 08:08:07,VALID,920.445,VALID,0.0,VALID,89.866,VALID,217.091,VALID,21.915,INVALID,360.0,VALID,0.0,
2019-11-09, 08:09:07,VALID,920.443,VALID,0.0,VALID,91.164,VALID,219.704,VALID,22.003,INVALID,360.0,VALID,0.0,
2019-11-09, 08:10:07,VALID,920.47,VALID,0.0,VALID,89.669,VALID,221.455,VALID,22.029,INVALID,360.0,VALID,0.0,
2019-11-09, 08:11:07,VALID,920.457,VALID,0.0,VALID,88.994,VALID,224.951,VALID,22.012,INVALID,360.0,VALID,0.0,
2019-11-09, 08:12:07,VALID,920.451,VALID,0.0,VALID,89.026,VALID,230.499,VALID,21.935,INVALID,360.0,VALID,0.0,
2019-11-09, 08:13:07,VALID,920.452,VALID,0.0,VALID,89.188,VALID,241.812,VALID,21.908,INVALID,360.0,VALID,0.0,
2019-11-09, 08:14:07,VALID,920.464,VALID,0.0,VALID,89.503,VALID,241.386,VALID,21.889,INVALID,360.0,VALID,0.0,
2019-11-09, 08:15:07,VALID,920.448,VALID,0.0,VALID,89.497,VALID,240.82,VALID,21.902,INVALID,360.0,VALID,0.0,
2019-11-09, 08:16:07,VALID,920.453,VALID,0.0,VALID,89.77,VALID,243.286,VALID,21.983,INVALID,360.0,VALID,0.0,
2019-11-09, 08:17:07,VALID,920.445,VALID,0.0,VALID,89.831,VALID,244.275,VALID,22.092,INVALID,360.0,VALID,0.0,
2019-11-09, 08:18:07,VALID,920.442,VALID,0.0,VALID,89.284,VALID,245.817,VALID,22.126,INVALID,360.0,VALID,0.0,
2019-11-09, 08:19:07,VALID,920.457,VALID,0.0,VALID,89.337,VALID,245.322,VALID,22.183,INVALID,360.0,VALID,0.0,
2019-11-09, 08:20:07,VALID,920.462,VALID,0.0,VALID,88.535,VALID,246.868,VALID,22.103,INVALID,360.0,VALID,0.0,
2019-11-09, 08:21:07,VALID,920.474,VALID,0.0,VALID,89.593,VALID,253.127,VALID,21.975,INVALID,360.0,VALID,0.0,
2019-11-09, 08:22:07,VALID,920.484,VALID,0.0,VALID,90.893,VALID,265.474,VALID,22.105,INVALID,360.0,VALID,0.0,
2019-11-09, 08:23:07,VALID,920.492,VALID,0.0,VALID,90.142,VALID,279.343,VALID,22.295,INVALID,360.0,VALID,0.0,
2019-11-09, 08:24:07,VALID,920.5,VALID,0.0,VALID,88.517,VALID,288.819,VALID,22.393,INVALID,360.0,VALID,0.0,
2019-11-09, 08:25:07,VALID,920.523,VALID,0.0,VALID,88.191,VALID,295.552,VALID,22.493,INVALID,360.0,VALID,0.0,
2019-11-09, 08:26:07,VALID,920.523,VALID,0.0,VALID,87.622,VALID,301.233,VALID,22.543,INVALID,360.0,VALID,0.0,
2019-11-09, 08:27:07,VALID,920.526,VALID,0.0,VALID,87.236,VALID,302.882,VALID,22.434,INVALID,360.0,VALID,0.0,
2019-11-09, 08:28:07,VALID,920.521,VALID,0.0,VALID,88.458,VALID,304.477,VALID,22.397,INVALID,360.0,VALID,0.0,
2019-11-09, 08:29:07,VALID,920.52,VALID,0.0,VALID,89.012,VALID,306.272,VALID,22.581,INVALID,360.0,VALID,0.0,
2019-11-09, 08:30:07,VALID,920.55,VALID,0.0,VALID,87.251,VALID,308.885,VALID,22.77,INVALID,360.0,VALID,0.0,
2019-11-09, 08:31:07,VALID,920.548,VALID,0.0,VALID,86.452,VALID,314.552,VALID,22.94,INVALID,360.0,VALID,0.0,
2019-11-09, 08:32:07,VALID,920.543,VALID,0.0,VALID,86.419,VALID,326.965,VALID,23.009,INVALID,360.0,VALID,0.0,
2019-11-09, 08:33:07,VALID,920.548,VALID,0.0,VALID,86.78,VALID,355.009,VALID,22.928,INVALID,360.0,VALID,0.0,
2019-11-09, 08:34:07,VALID,920.542,VALID,0.0,VALID,87.088,VALID,369.475,VALID,22.955,INVALID,360.0,VALID,0.0,
2019-11-09, 08:35:07,VALID,920.572,VALID,0.0,VALID,86.737,VALID,385.264,VALID,23.005,INVALID,360.0,VALID,0.0,
2019-11-09, 08:36:07,VALID,920.568,VALID,0.0,VALID,87.129,VALID,373.427,VALID,23.087,INVALID,360.0,VALID,0.0,
2019-11-09, 08:37:07,VALID,920.581,VALID,0.0,VALID,86.233,VALID,357.076,VALID,23.047,INVALID,360.0,VALID,0.0,
2019-11-09, 08:38:07,VALID,920.58,VALID,0.0,VALID,87.234,VALID,346.212,VALID,22.941,INVALID,360.0,VALID,0.0,
2019-11-09, 08:39:07,VALID,920.579,VALID,0.0,VALID,86.774,VALID,351.716,VALID,22.761,INVALID,360.0,VALID,0.0,
2019-11-09, 08:40:07,VALID,920.583,VALID,0.0,VALID,86.611,VALID,395.486,VALID,22.685,INVALID,360.0,VALID,0.0,
2019-11-09, 08:41:07,VALID,920.596,VALID,0.0,VALID,87.035,VALID,392.949,VALID,22.715,INVALID,360.0,VALID,0.0,
2019-11-09, 08:42:07,VALID,920.598,VALID,0.0,VALID,85.913,VALID,399.016,VALID,22.664,INVALID,360.0,VALID,0.0,
2019-11-09, 08:43:07,VALID,920.582,VALID,0.0,VALID,86.91,VALID,492.836,VALID,22.663,INVALID,360.0,VALID,0.0,
2019-11-09, 08:44:07,VALID,920.588,VALID,0.0,VALID,86.948,VALID,410.276,VALID,22.944,INVALID,360.0,VALID,0.0,
2019-11-09, 08:45:07,VALID,920.586,VALID,0.0,VALID,86.151,VALID,380.572,VALID,23.142,INVALID,360.0,VALID,0.0,
2019-11-09, 08:46:07,VALID,920.604,VALID,0.0,VALID,84.924,VALID,367.124,VALID,23.36,INVALID,360.0,VALID,0.0,
2019-11-09, 08:47:07,VALID,920.607,VALID,0.0,VALID,82.793,VALID,334.464,VALID,23.515,INVALID,360.0,VALID,0.0,
2019-11-09, 08:48:07,VALID,920.607,VALID,0.0,VALID,83.353,VALID,324.843,VALID,23.613,INVALID,360.0,VALID,0.0,
2019-11-09, 08:49:07,VALID,920.618,VALID,0.0,VALID,82.739,VALID,322.922,VALID,23.796,INVALID,360.0,VALID,0.0,
2019-11-09, 08:50:07,VALID,920.61,VALID,0.0,VALID,82.657,VALID,320.65,VALID,24.079,INVALID,360.0,VALID,0.0,
2019-11-09, 08:51:07,VALID,920.624,VALID,0.0,VALID,81.561,VALID,317.137,VALID,24.304,INVALID,360.0,VALID,0.0,
2019-11-09, 08:52:07,VALID,920.631,VALID,0.0,VALID,80.918,VALID,313.668,VALID,24.394,INVALID,360.0,VALID,0.0,
2019-11-09, 08:53:07,VALID,920.644,VALID,0.0,VALID,80.68,VALID,312.334,VALID,24.211,INVALID,360.0,VALID,0.0,
2019-11-09, 08:54:07,VALID,920.66,VALID,0.0,VALID,81.384,VALID,314.125,VALID,23.988,INVALID,360.0,VALID,0.0,
2019-11-09, 08:55:07,VALID,920.656,VALID,0.0,VALID,81.851,VALID,318.444,VALID,23.88,INVALID,360.0,VALID,0.0,
2019-11-09, 08:56:07,VALID,920.668,VALID,0.0,VALID,81.327,VALID,320.414,VALID,24.012,INVALID,360.0,VALID,0.0,
2019-11-09, 08:57:07,VALID,920.668,VALID,0.0,VALID,80.38,VALID,322.849,VALID,24.12,INVALID,360.0,VALID,0.0,
2019-11-09, 08:58:07,VALID,920.663,VALID,0.0,VALID,79.275,VALID,328.45,VALID,24.112,INVALID,360.0,VALID,0.0,
2019-11-09, 08:59:07,VALID,920.661,VALID,0.0,VALID,80.445,VALID,329.667,VALID,23.854,INVALID,360.0,VALID,0.0,
2019-11-09, 09:00:07,VALID,920.663,VALID,0.0,VALID,81.706,VALID,324.502,VALID,23.783,INVALID,360.0,VALID,0.0,
2019-11-09, 09:01:07,VALID,920.657,VALID,0.0,VALID,82.11,VALID,321.131,VALID,23.901,INVALID,360.0,VALID,0.0,
2019-11-09, 09:02:07,VALID,920.663,VALID,0.0,VALID,82.301,VALID,330.217,VALID,24.084,INVALID,360.0,VALID,0.0,
2019-11-09, 09:03:07,VALID,920.678,VALID,0.0,VALID,81.918,VALID,329.174,VALID,24.206,INVALID,360.0,VALID,0.0,
2019-11-09, 09:04:07,VALID,920.659,VALID,0.0,VALID,81.743,VALID,337.843,VALID,23.897,INVALID,360.0,VALID,0.0,
2019-11-09, 09:05:07,VALID,920.664,VALID,0.0,VALID,83.405,VALID,339.19,VALID,23.611,INVALID,360.0,VALID,0.0,
2019-11-09, 09:06:07,VALID,920.661,VALID,0.0,VALID,84.115,VALID,321.937,VALID,23.526,INVALID,360.0,VALID,0.0,
2019-11-09, 09:07:07,VALID,920.648,VALID,0.0,VALID,85.847,VALID,298.703,VALID,23.48,INVALID,360.0,VALID,0.0,
2019-11-09, 09:08:07,VALID,920.644,VALID,0.0,VALID,85.117,VALID,288.152,VALID,23.473,INVALID,360.0,VALID,0.0,
2019-11-09, 09:09:06,VALID,920.644,VALID,0.0,VALID,85.084,VALID,284.942,VALID,23.483,INVALID,360.0,VALID,0.0,
2019-11-09, 09:10:06,VALID,920.629,VALID,0.0,VALID,84.314,VALID,286.52,VALID,23.426,INVALID,360.0,VALID,0.0,
2019-11-09, 09:11:06,VALID,920.638,VALID,0.0,VALID,84.979,VALID,282.996,VALID,23.452,INVALID,360.0,VALID,0.0,
2019-11-09, 09:12:06,VALID,920.638,VALID,0.0,VALID,84.878,VALID,281.928,VALID,23.45,INVALID,360.0,VALID,0.0,
2019-11-09, 09:13:06,VALID,920.646,VALID,0.0,VALID,85.079,VALID,287.141,VALID,23.477,INVALID,360.0,VALID,0.0,
2019-11-09, 09:14:06,VALID,920.637,VALID,0.0,VALID,84.243,VALID,297.012,VALID,23.584,INVALID,360.0,VALID,0.0,
2019-11-09, 09:15:06,VALID,920.655,VALID,0.0,VALID,84.499,VALID,284.373,VALID,23.774,INVALID,360.0,VALID,0.0,
2019-11-09, 09:16:06,VALID,920.641,VALID,0.0,VALID,83.731,VALID,279.409,VALID,23.975,INVALID,360.0,VALID,0.0,
2019-11-09, 09:17:06,VALID,920.638,VALID,0.0,VALID,82.972,VALID,279.707,VALID,24.167,INVALID,360.0,VALID,0.0,
2019-11-09, 09:18:06,VALID,920.643,VALID,0.0,VALID,82.089,VALID,277.391,VALID,24.376,INVALID,360.0,VALID,0.0,
2019-11-09, 09:19:06,VALID,920.646,VALID,0.0,VALID,81.108,VALID,277.003,VALID,24.471,INVALID,360.0,VALID,0.0,
2019-11-09, 09:20:06,VALID,920.652,VALID,0.0,VALID,81.127,VALID,278.005,VALID,24.56,INVALID,360.0,VALID,0.0,
2019-11-09, 09:21:06,VALID,920.641,VALID,0.0,VALID,80.066,VALID,283.283,VALID,24.599,INVALID,360.0,VALID,0.0,
2019-11-09, 09:22:06,VALID,920.646,VALID,0.0,VALID,79.937,VALID,289.968,VALID,24.675,INVALID,360.0,VALID,0.0,
2019-11-09, 09:23:06,VALID,920.659,VALID,0.0,VALID,79.389,VALID,290.276,VALID,24.602,INVALID,360.0,VALID,0.0,
2019-11-09, 09:24:06,VALID,920.631,VALID,0.0,VALID,80.055,VALID,291.44,VALID,24.641,INVALID,360.0,VALID,0.0,
2019-11-09, 09:25:06,VALID,920.637,VALID,0.0,VALID,80.133,VALID,291.531,VALID,24.559,INVALID,360.0,VALID,0.0,
2019-11-09, 09:26:06,VALID,920.622,VALID,0.0,VALID,80.82,VALID,294.245,VALID,24.274,INVALID,360.0,VALID,0.0,
2019-11-09, 09:27:06,VALID,920.642,VALID,0.0,VALID,82.296,VALID,297.862,VALID,24.065,INVALID,360.0,VALID,0.0,
2019-11-09, 09:28:06,VALID,920.642,VALID,0.0,VALID,82.456,VALID,301.788,VALID,23.897,INVALID,360.0,VALID,0.0,
2019-11-09, 09:29:06,VALID,920.655,VALID,0.0,VALID,83.652,VALID,306.98,VALID,23.777,INVALID,360.0,VALID,0.0,
2019-11-09, 09:30:06,VALID,920.653,VALID,0.0,VALID,84.063,VALID,312.508,VALID,23.738,INVALID,360.0,VALID,0.0,
2019-11-09, 09:31:06,VALID,920.679,VALID,0.0,VALID,83.505,VALID,315.621,VALID,23.67,INVALID,360.0,VALID,0.0,
2019-11-09, 09:32:06,VALID,920.667,VALID,0.0,VALID,83.979,VALID,317.228,VALID,23.816,INVALID,360.0,VALID,0.0,
2019-11-09, 09:33:06,VALID,920.67,VALID,0.0,VALID,82.806,VALID,319.614,VALID,24.02,INVALID,360.0,VALID,0.0,
2019-11-09, 09:34:06,VALID,920.681,VALID,0.0,VALID,82.113,VALID,319.719,VALID,24.106,INVALID,360.0,VALID,0.0,
2019-11-09, 09:35:06,VALID,920.691,VALID,0.0,VALID,82.948,VALID,318.312,VALID,24.065,INVALID,360.0,VALID,0.0,
2019-11-09, 09:36:06,VALID,920.672,VALID,0.0,VALID,82.615,VALID,316.531,VALID,24.189,INVALID,360.0,VALID,0.0,
2019-11-09, 09:37:06,VALID,920.683,VALID,0.0,VALID,81.646,VALID,314.251,VALID,24.289,INVALID,360.0,VALID,0.0,
2019-11-09, 09:38:06,VALID,920.67,VALID,0.0,VALID,82.454,VALID,313.176,VALID,24.302,INVALID,360.0,VALID,0.0,
2019-11-09, 09:39:06,VALID,920.674,VALID,0.0,VALID,82.439,VALID,311.655,VALID,24.311,INVALID,360.0,VALID,0.0,
2019-11-09, 09:40:06,VALID,920.667,VALID,0.0,VALID,80.709,VALID,309.297,VALID,24.384,VALID,5.0,VALID,0.0,
2019-11-09, 09:41:06,VALID,920.648,VALID,0.0,VALID,80.378,VALID,308.651,VALID,24.546,INVALID,360.0,VALID,0.0,
2019-11-09, 09:42:06,VALID,920.66,VALID,0.0,VALID,80.431,VALID,310.11,VALID,24.716,INVALID,360.0,VALID,0.0,
2019-11-09, 09:43:06,VALID,920.679,VALID,0.0,VALID,79.851,VALID,313.963,VALID,24.73,INVALID,360.0,VALID,0.0,
2019-11-09, 09:44:06,VALID,920.672,VALID,0.0,VALID,79.482,VALID,323.642,VALID,24.621,INVALID,360.0,VALID,0.0,
2019-11-09, 09:45:06,VALID,920.66,VALID,0.0,VALID,81.136,VALID,334.692,VALID,24.455,INVALID,360.0,VALID,0.0,
2019-11-09, 09:46:06,VALID,920.671,VALID,0.0,VALID,81.111,VALID,344.379,VALID,24.497,INVALID,360.0,VALID,0.0,
2019-11-09, 09:47:06,VALID,920.675,VALID,0.0,VALID,80.768,VALID,360.043,VALID,24.531,INVALID,360.0,VALID,0.0,
2019-11-09, 09:48:06,VALID,920.667,VALID,0.0,VALID,80.267,VALID,377.355,VALID,24.588,INVALID,360.0,VALID,0.0,
2019-11-09, 09:49:06,VALID,920.671,VALID,0.0,VALID,78.853,VALID,401.388,VALID,24.488,INVALID,360.0,VALID,0.0,
2019-11-09, 09:50:06,VALID,920.655,VALID,0.0,VALID,80.305,VALID,426.98,VALID,24.522,INVALID,360.0,VALID,0.0,
2019-11-09, 09:51:06,VALID,920.664,VALID,0.0,VALID,79.752,VALID,407.62,VALID,24.659,INVALID,360.0,VALID,0.0,
2019-11-09, 09:52:06,VALID,920.661,VALID,0.0,VALID,79.488,VALID,412.57,VALID,24.734,INVALID,360.0,VALID,0.0,
2019-11-09, 09:53:06,VALID,920.641,VALID,0.0,VALID,78.417,VALID,428.082,VALID,24.536,INVALID,360.0,VALID,0.0,
2019-11-09, 09:54:06,VALID,920.643,VALID,0.0,VALID,79.66,VALID,624.694,VALID,24.436,INVALID,360.0,VALID,0.0,
2019-11-09, 09:55:06,VALID,920.646,VALID,0.0,VALID,80.406,VALID,736.833,VALID,24.4,INVALID,360.0,VALID,0.0,
2019-11-09, 09:56:06,VALID,920.652,VALID,0.0,VALID,80.446,VALID,577.19,VALID,24.424,INVALID,360.0,VALID,0.0,
2019-11-09, 09:57:06,VALID,920.628,VALID,0.0,VALID,80.946,VALID,436.04,VALID,24.468,INVALID,360.0,VALID,0.0,
2019-11-09, 09:58:06,VALID,920.607,VALID,0.0,VALID,81.014,VALID,461.663,VALID,24.554,INVALID,360.0,VALID,0.0,
2019-11-09, 09:59:06,VALID,920.599,VALID,0.0,VALID,81.138,VALID,438.174,VALID,24.611,INVALID,360.0,VALID,0.0,
2019-11-09, 10:00:06,VALID,920.596,VALID,0.0,VALID,79.86,VALID,401.746,VALID,24.726,INVALID,360.0,VALID,0.0,
2019-11-09, 10:01:06,VALID,920.571,VALID,0.0,VALID,79.535,VALID,389.297,VALID,24.857,INVALID,360.0,VALID,0.0,
2019-11-09, 10:02:06,VALID,920.549,VALID,0.0,VALID,78.756,VALID,392.216,VALID,24.825,INVALID,360.0,VALID,0.0,
2019-11-09, 10:03:06,VALID,920.541,VALID,0.0,VALID,79.282,VALID,405.585,VALID,24.825,INVALID,360.0,VALID,0.0,
2019-11-09, 10:04:06,VALID,920.54,VALID,0.0,VALID,80.032,VALID,461.801,VALID,24.694,INVALID,360.0,VALID,0.0,
2019-11-09, 10:05:06,VALID,920.528,VALID,0.0,VALID,80.401,VALID,492.673,VALID,24.535,INVALID,360.0,VALID,0.0,
2019-11-09, 10:06:06,VALID,920.516,VALID,0.0,VALID,80.369,VALID,491.008,VALID,24.371,INVALID,360.0,VALID,0.0,
2019-11-09, 10:07:06,VALID,920.518,VALID,0.0,VALID,81.024,VALID,524.542,VALID,24.661,INVALID,360.0,VALID,0.0,
2019-11-09, 10:08:06,VALID,920.484,VALID,0.0,VALID,79.936,VALID,721.1,VALID,24.887,INVALID,360.0,VALID,0.0,
2019-11-09, 10:09:06,VALID,920.476,VALID,0.0,VALID,80.069,VALID,769.411,VALID,24.854,INVALID,360.0,VALID,0.0,
2019-11-09, 10:10:06,VALID,920.485,VALID,0.0,VALID,78.712,VALID,677.608,VALID,25.055,INVALID,360.0,VALID,0.0,
2019-11-09, 10:11:06,VALID,920.474,VALID,0.0,VALID,78.715,VALID,753.305,VALID,25.06,INVALID,360.0,VALID,0.0,
2019-11-09, 10:12:06,VALID,920.469,VALID,0.0,VALID,78.768,VALID,787.258,VALID,25.137,INVALID,360.0,VALID,0.0,
2019-11-09, 10:13:06,VALID,920.451,VALID,0.0,VALID,77.932,VALID,841.62,VALID,25.314,INVALID,360.0,VALID,0.0,
2019-11-09, 10:14:06,VALID,920.455,VALID,0.0,VALID,77.482,VALID,814.467,VALID,25.365,INVALID,360.0,VALID,0.0,
2019-11-09, 10:15:06,VALID,920.455,VALID,0.0,VALID,77.575,VALID,609.022,VALID,25.608,INVALID,360.0,VALID,0.0,
2019-11-09, 10:16:06,VALID,920.461,VALID,0.0,VALID,77.506,VALID,514.095,VALID,25.885,INVALID,360.0,VALID,0.0,
2019-11-09, 10:17:06,VALID,920.449,VALID,0.0,VALID,76.183,VALID,489.768,VALID,25.869,INVALID,360.0,VALID,0.0,
2019-11-09, 10:18:06,VALID,920.44,VALID,0.0,VALID,76.169,VALID,400.039,VALID,25.713,INVALID,360.0,VALID,0.0,
2019-11-09, 10:19:06,VALID,920.423,VALID,0.0,VALID,77.092,VALID,333.38,VALID,25.324,INVALID,360.0,VALID,0.0,
2019-11-09, 10:20:06,VALID,920.426,VALID,0.0,VALID,78.571,VALID,322.508,VALID,24.74,INVALID,360.0,VALID,0.0,
2019-11-09, 10:21:06,VALID,920.402,VALID,0.0,VALID,80.962,VALID,327.808,VALID,24.62,INVALID,360.0,VALID,0.0,
2019-11-09, 10:22:06,VALID,920.4,VALID,0.0,VALID,80.143,VALID,331.532,VALID,24.737,INVALID,360.0,VALID,0.0,
2019-11-09, 10:23:06,VALID,920.401,VALID,0.0,VALID,79.894,VALID,312.689,VALID,24.767,INVALID,360.0,VALID,0.0,
2019-11-09, 10:24:06,VALID,920.391,VALID,0.0,VALID,81.576,VALID,283.993,VALID,24.863,INVALID,360.0,VALID,0.0,
2019-11-09, 10:25:06,VALID,920.38,VALID,0.0,VALID,80.059,VALID,263.574,VALID,24.851,INVALID,360.0,VALID,0.0,
2019-11-09, 10:26:06,VALID,920.391,VALID,0.0,VALID,81.36,VALID,262.272,VALID,24.713,INVALID,360.0,VALID,0.0,
2019-11-09, 10:27:06,VALID,920.389,VALID,0.0,VALID,81.399,VALID,267.456,VALID,24.815,INVALID,360.0,VALID,0.0,
2019-11-09, 10:28:06,VALID,920.402,VALID,0.0,VALID,81.617,VALID,273.711,VALID,24.829,INVALID,360.0,VALID,0.0,
2019-11-09, 10:29:06,VALID,920.395,VALID,0.0,VALID,80.715,VALID,285.327,VALID,24.717,INVALID,360.0,VALID,0.0,
2019-11-09, 10:30:06,VALID,920.388,VALID,0.0,VALID,81.976,VALID,291.269,VALID,24.562,INVALID,360.0,VALID,0.0,
2019-11-09, 10:31:06,VALID,920.381,VALID,0.0,VALID,82.877,VALID,295.283,VALID,24.636,INVALID,360.0,VALID,0.0,
2019-11-09, 10:32:06,VALID,920.378,VALID,0.0,VALID,81.602,VALID,296.532,VALID,24.8,INVALID,360.0,VALID,0.0,
2019-11-09, 10:33:06,VALID,920.381,VALID,0.0,VALID,81.212,VALID,297.726,VALID,24.903,INVALID,360.0,VALID,0.0,
2019-11-09, 10:34:06,VALID,920.376,VALID,0.0,VALID,80.948,VALID,302.47,VALID,25.109,INVALID,360.0,VALID,0.0,
2019-11-09, 10:35:06,VALID,920.368,VALID,0.0,VALID,79.61,VALID,318.428,VALID,25.3,INVALID,360.0,VALID,0.0,